Time,TemperatureF,DewpointF,PressureIn,WindDirection,WindDirectionDegrees,WindSpeedMPH,WindSpeedGustMPH,Humidity,HourlyPrecipIn,Conditions,Clouds,dailyrainin,SoftwareType,DateUTC
2013-01-29 00:01:00,64.8,59.9,30.21,East,81,0.0,0.0,84,0.00,,---,0.00,VWS V14.00,2013-01-29 05:01:00,
2013-01-29 00:03:00,64.7,59.8,30.21,East,81,0.0,0.0,84,0.00,,---,0.00,VWS V14.00,2013-01-29 05:03:00,
2013-01-29 00:08:00,64.4,59.8,30.21,East,81,0.0,0.0,85,0.00,,---,0.00,VWS V14.00,2013-01-29 05:08:00,
2013-01-29 00:13:00,64.2,59.6,30.21,East,81,0.0,0.0,85,0.00,,---,0.00,VWS V14.00,2013-01-29 05:13:00,
2013-01-29 00:18:00,63.9,59.6,30.21,East,81,0.0,0.0,86,0.00,,---,0.00,VWS V14.00,2013-01-29 05:18:00,
2013-01-29 00:23:00,63.8,59.5,30.21,East,81,0.0,0.0,86,0.00,,---,0.00,VWS V14.00,2013-01-29 05:23:00,
2013-01-29 00:28:00,63.6,59.7,30.20,East,81,0.0,0.0,87,0.00,,---,0.00,VWS V14.00,2013-01-29 05:28:00,
2013-01-29 00:33:00,63.5,59.6,30.20,East,81,0.0,0.0,87,0.00,,---,0.00,VWS V14.00,2013-01-29 05:33:00,
2013-01-29 00:38:00,63.4,59.5,30.20,East,81,0.0,0.0,87,0.00,,---,0.00,VWS V14.00,2013-01-29 05:38:00,
2013-01-29 00:43:00,63.1,59.2,30.20,East,81,0.0,0.0,87,0.00,,---,0.00,VWS V14.00,2013-01-29 05:43:00,
2013-01-29 00:48:00,62.9,59.3,30.20,East,81,0.0,0.0,88,0.00,,---,0.00,VWS V14.00,2013-01-29 05:48:00,
2013-01-29 00:53:00,62.7,59.1,30.20,East,81,0.0,1.0,88,0.00,,---,0.00,VWS V14.00,2013-01-29 05:53:00,
2013-01-29 00:58:00,62.6,59.3,30.20,East,81,0.0,0.0,89,0.00,,---,0.00,VWS V14.00,2013-01-29 05:58:00,
2013-01-29 01:03:00,62.5,59.2,30.20,East,81,0.0,0.0,89,0.00,,---,0.00,VWS V14.00,2013-01-29 06:03:00,
2013-01-29 01:08:00,62.5,59.2,30.20,East,81,0.0,0.0,89,0.00,,---,0.00,VWS V14.00,2013-01-29 06:08:00,
2013-01-29 01:13:00,62.3,59.0,30.20,East,81,0.0,0.0,89,0.00,,---,0.00,VWS V14.00,2013-01-29 06:13:00,
2013-01-29 01:18:00,62.2,59.2,30.20,East,81,0.0,0.0,90,0.00,,---,0.00,VWS V14.00,2013-01-29 06:18:00,
2013-01-29 01:23:00,62.1,59.5,30.20,East,81,0.0,0.0,91,0.00,,---,0.00,VWS V14.00,2013-01-29 06:23:00,
2013-01-29 01:28:00,62.0,59.3,30.19,East,81,0.0,1.0,91,0.00,,---,0.00,VWS V14.00,2013-01-29 06:28:00,
2013-01-29 01:33:00,62.0,59.3,30.19,East,81,0.0,0.0,91,0.00,,---,0.00,VWS V14.00,2013-01-29 06:33:00,
2013-01-29 01:38:00,62.0,59.7,30.19,East,81,0.0,0.0,92,0.00,,---,0.00,VWS V14.00,2013-01-29 06:38:00,
2013-01-29 01:43:00,62.0,59.7,30.19,East,81,0.0,0.0,92,0.00,,---,0.00,VWS V14.00,2013-01-29 06:43:00,
2013-01-29 01:48:00,62.1,59.8,30.19,East,81,0.0,0.0,92,0.00,,---,0.00,VWS V14.00,2013-01-29 06:48:00,
2013-01-29 01:53:00,62.1,59.8,30.19,East,81,0.0,0.0,92,0.00,,---,0.00,VWS V14.00,2013-01-29 06:53:00,
2013-01-29 01:58:00,62.1,60.1,30.18,East,81,0.0,0.0,93,0.00,,---,0.00,VWS V14.00,2013-01-29 06:58:00,
2013-01-29 02:03:00,62.2,60.2,30.18,East,81,0.0,0.0,93,0.00,,---,0.00,VWS V14.00,2013-01-29 07:03:00,
2013-01-29 02:08:00,62.2,60.2,30.18,East,81,0.0,0.0,93,0.00,,---,0.00,VWS V14.00,2013-01-29 07:08:00,
2013-01-29 02:13:00,62.2,60.2,30.18,East,81,0.0,0.0,93,0.00,,---,0.00,VWS V14.00,2013-01-29 07:13:00,
2013-01-29 02:18:00,62.3,60.2,30.18,East,81,0.0,0.0,93,0.00,,---,0.00,VWS V14.00,2013-01-29 07:18:00,
2013-01-29 02:23:00,62.3,60.2,30.18,East,81,0.0,0.0,93,0.00,,---,0.00,VWS V14.00,2013-01-29 07:23:00,
2013-01-29 02:28:00,62.2,60.2,30.18,East,81,0.0,0.0,93,0.00,,---,0.00,VWS V14.00,2013-01-29 07:28:00,
2013-01-29 02:33:00,62.2,60.2,30.18,East,81,0.0,0.0,93,0.00,,---,0.00,VWS V14.00,2013-01-29 07:33:00,
2013-01-29 02:38:00,62.2,60.2,30.18,East,81,0.0,1.0,93,0.00,,---,0.00,VWS V14.00,2013-01-29 07:38:00,
2013-01-29 02:43:00,62.2,60.2,30.18,East,81,0.0,0.0,93,0.00,,---,0.00,VWS V14.00,2013-01-29 07:43:00,
2013-01-29 02:48:00,62.1,60.1,30.18,East,81,0.0,0.0,93,0.00,,---,0.00,VWS V14.00,2013-01-29 07:48:00,
2013-01-29 02:53:00,62.1,60.1,30.18,East,81,0.0,0.0,93,0.00,,---,0.00,VWS V14.00,2013-01-29 07:53:00,
2013-01-29 02:58:00,62.0,60.0,30.18,East,81,0.0,0.0,93,0.00,,---,0.00,VWS V14.00,2013-01-29 07:58:00,
2013-01-29 03:03:00,61.9,59.9,30.18,East,81,0.0,0.0,93,0.00,,---,0.00,VWS V14.00,2013-01-29 08:03:00,
2013-01-29 03:08:00,61.7,59.7,30.18,East,81,0.0,0.0,93,0.00,,---,0.00,VWS V14.00,2013-01-29 08:08:00,
2013-01-29 03:13:00,61.6,59.6,30.18,East,81,0.0,0.0,93,0.00,,---,0.00,VWS V14.00,2013-01-29 08:13:00,
2013-01-29 03:18:00,61.5,59.5,30.17,East,81,0.0,0.0,93,0.00,,---,0.00,VWS V14.00,2013-01-29 08:18:00,
2013-01-29 03:23:00,61.4,59.7,30.17,East,81,0.0,0.0,94,0.00,,---,0.00,VWS V14.00,2013-01-29 08:23:00,
2013-01-29 03:28:00,61.3,59.6,30.17,East,81,0.0,0.0,94,0.00,,---,0.00,VWS V14.00,2013-01-29 08:28:00,
2013-01-29 03:33:00,61.3,59.6,30.17,East,81,0.0,0.0,94,0.00,,---,0.00,VWS V14.00,2013-01-29 08:33:00,
2013-01-29 03:38:00,61.3,59.6,30.17,East,81,0.0,0.0,94,0.00,,---,0.00,VWS V14.00,2013-01-29 08:38:00,
2013-01-29 03:43:00,61.4,60.0,30.18,East,81,0.0,0.0,95,0.00,,---,0.00,VWS V14.00,2013-01-29 08:43:00,
2013-01-29 03:48:00,61.3,59.6,30.18,East,81,0.0,0.0,94,0.00,,---,0.00,VWS V14.00,2013-01-29 08:48:00,
2013-01-29 03:53:00,61.3,59.6,30.17,East,81,0.0,0.0,94,0.00,,---,0.00,VWS V14.00,2013-01-29 08:53:00,
2013-01-29 03:58:00,61.2,59.5,30.17,East,81,0.0,0.0,94,0.00,,---,0.00,VWS V14.00,2013-01-29 08:58:00,
2013-01-29 04:03:00,61.2,59.8,30.17,East,81,0.0,0.0,95,0.00,,---,0.00,VWS V14.00,2013-01-29 09:03:00,
2013-01-29 04:08:00,61.2,59.8,30.17,East,81,0.0,0.0,95,0.00,,---,0.00,VWS V14.00,2013-01-29 09:08:00,
2013-01-29 04:13:00,61.1,59.4,30.17,East,81,0.0,0.0,94,0.00,,---,0.00,VWS V14.00,2013-01-29 09:13:00,
2013-01-29 04:18:00,61.1,59.4,30.17,East,81,0.0,0.0,94,0.00,,---,0.00,VWS V14.00,2013-01-29 09:18:00,
2013-01-29 04:23:00,60.9,59.2,30.17,East,81,0.0,0.0,94,0.00,,---,0.00,VWS V14.00,2013-01-29 09:23:00,
2013-01-29 04:28:00,60.8,59.1,30.17,East,81,0.0,0.0,94,0.00,,---,0.00,VWS V14.00,2013-01-29 09:28:00,
2013-01-29 04:33:00,60.7,59.0,30.17,East,81,0.0,0.0,94,0.00,,---,0.00,VWS V14.00,2013-01-29 09:33:00,
2013-01-29 04:38:00,60.6,58.9,30.17,East,81,0.0,0.0,94,0.00,,---,0.00,VWS V14.00,2013-01-29 09:38:00,
2013-01-29 04:43:00,60.5,59.1,30.16,East,81,0.0,0.0,95,0.00,,---,0.00,VWS V14.00,2013-01-29 09:43:00,
2013-01-29 04:48:00,60.6,59.5,30.16,East,81,0.0,0.0,96,0.00,,---,0.00,VWS V14.00,2013-01-29 09:48:00,
2013-01-29 04:53:00,60.7,59.6,30.17,East,81,0.0,0.0,96,0.00,,---,0.00,VWS V14.00,2013-01-29 09:53:00,
2013-01-29 04:58:00,60.7,59.6,30.17,East,81,0.0,0.0,96,0.00,,---,0.00,VWS V14.00,2013-01-29 09:58:00,
2013-01-29 05:03:00,60.7,59.3,30.17,East,81,0.0,0.0,95,0.00,,---,0.00,VWS V14.00,2013-01-29 10:03:00,
2013-01-29 05:08:00,60.7,59.6,30.17,East,81,0.0,0.0,96,0.00,,---,0.00,VWS V14.00,2013-01-29 10:08:00,
2013-01-29 05:13:00,60.9,59.8,30.17,East,81,0.0,0.0,96,0.00,,---,0.00,VWS V14.00,2013-01-29 10:13:00,
2013-01-29 05:18:00,60.8,59.7,30.17,East,81,0.0,0.0,96,0.00,,---,0.00,VWS V14.00,2013-01-29 10:18:00,
2013-01-29 05:23:00,60.9,59.8,30.17,East,81,0.0,0.0,96,0.00,,---,0.00,VWS V14.00,2013-01-29 10:23:00,
2013-01-29 05:28:00,61.1,60.0,30.17,East,81,0.0,2.0,96,0.00,,---,0.00,VWS V14.00,2013-01-29 10:28:00,
2013-01-29 05:33:00,61.3,60.4,30.17,East,81,0.0,0.0,97,0.00,,---,0.00,VWS V14.00,2013-01-29 10:33:00,
2013-01-29 05:38:00,61.3,60.4,30.18,East,81,0.0,0.0,97,0.00,,---,0.00,VWS V14.00,2013-01-29 10:38:00,
2013-01-29 05:43:00,61.4,60.5,30.18,East,81,0.0,0.0,97,0.00,,---,0.00,VWS V14.00,2013-01-29 10:43:00,
2013-01-29 05:48:00,61.4,60.5,30.18,East,81,0.0,2.0,97,0.00,,---,0.00,VWS V14.00,2013-01-29 10:48:00,
2013-01-29 05:53:00,61.4,60.2,30.18,East,81,0.0,0.0,96,0.00,,---,0.00,VWS V14.00,2013-01-29 10:53:00,
2013-01-29 05:58:00,61.4,60.5,30.18,East,81,0.0,2.0,97,0.00,,---,0.00,VWS V14.00,2013-01-29 10:58:00,
2013-01-29 06:03:00,61.6,60.7,30.18,East,81,1.0,5.0,97,0.00,,---,0.00,VWS V14.00,2013-01-29 11:03:00,
2013-01-29 06:08:00,61.7,60.8,30.18,East,81,0.0,1.0,97,0.00,,---,0.00,VWS V14.00,2013-01-29 11:08:00,
2013-01-29 06:13:00,61.8,60.9,30.18,East,81,0.0,0.0,97,0.00,,---,0.00,VWS V14.00,2013-01-29 11:13:00,
2013-01-29 06:18:00,61.9,61.0,30.18,East,81,0.0,1.0,97,0.00,,---,0.00,VWS V14.00,2013-01-29 11:18:00,
2013-01-29 06:23:00,61.8,60.9,30.18,East,81,0.0,0.0,97,0.00,,---,0.00,VWS V14.00,2013-01-29 11:23:00,
2013-01-29 06:28:00,61.8,60.9,30.18,East,81,0.0,0.0,97,0.00,,---,0.00,VWS V14.00,2013-01-29 11:28:00,
2013-01-29 06:33:00,61.8,60.9,30.18,East,81,0.0,2.0,97,0.00,,---,0.00,VWS V14.00,2013-01-29 11:33:00,
2013-01-29 06:38:00,61.9,61.0,30.18,East,81,0.0,0.0,97,0.00,,---,0.00,VWS V14.00,2013-01-29 11:38:00,
2013-01-29 06:43:00,61.9,61.0,30.18,East,81,0.0,0.0,97,0.00,,---,0.00,VWS V14.00,2013-01-29 11:43:00,
2013-01-29 06:48:00,61.8,60.9,30.18,East,81,0.0,0.0,97,0.00,,---,0.00,VWS V14.00,2013-01-29 11:48:00,
2013-01-29 06:53:00,61.9,61.0,30.18,East,81,0.0,0.0,97,0.00,,---,0.00,VWS V14.00,2013-01-29 11:53:00,
2013-01-29 06:58:00,62.0,61.1,30.19,East,81,0.0,0.0,97,0.00,,---,0.00,VWS V14.00,2013-01-29 11:58:00,
2013-01-29 07:03:00,62.0,61.1,30.19,East,81,0.0,2.0,97,0.00,,---,0.00,VWS V14.00,2013-01-29 12:03:00,
2013-01-29 07:08:00,61.9,61.0,30.19,East,81,0.0,0.0,97,0.00,,---,0.00,VWS V14.00,2013-01-29 12:08:00,
2013-01-29 07:13:00,61.9,61.0,30.19,East,81,0.0,4.0,97,0.00,,---,0.00,VWS V14.00,2013-01-29 12:13:00,
2013-01-29 07:18:00,61.9,61.0,30.19,East,81,0.0,2.0,97,0.00,,---,0.00,VWS V14.00,2013-01-29 12:18:00,
2013-01-29 07:23:00,61.8,60.9,30.19,East,81,0.0,0.0,97,0.00,,---,0.00,VWS V14.00,2013-01-29 12:23:00,
2013-01-29 07:28:00,61.7,60.8,30.19,East,81,0.0,4.0,97,0.00,,---,0.00,VWS V14.00,2013-01-29 12:28:00,
2013-01-29 07:33:00,61.6,60.7,30.19,East,81,0.0,5.0,97,0.00,,---,0.00,VWS V14.00,2013-01-29 12:33:00,
2013-01-29 07:38:00,61.6,60.7,30.19,East,81,1.0,2.0,97,0.00,,---,0.00,VWS V14.00,2013-01-29 12:38:00,
2013-01-29 07:43:00,61.6,60.7,30.19,East,81,0.0,0.0,97,0.00,,---,0.00,VWS V14.00,2013-01-29 12:43:00,
2013-01-29 07:48:00,61.8,60.9,30.19,East,81,0.0,4.0,97,0.00,,---,0.00,VWS V14.00,2013-01-29 12:48:00,
2013-01-29 07:53:00,62.0,61.1,30.19,East,81,0.0,0.0,97,0.00,,---,0.00,VWS V14.00,2013-01-29 12:53:00,
2013-01-29 07:58:00,62.3,61.4,30.19,East,80,0.0,2.0,97,0.00,,---,0.00,VWS V14.00,2013-01-29 12:58:00,
2013-01-29 08:03:00,62.7,62.1,30.20,East,80,0.0,2.0,98,0.00,,---,0.00,VWS V14.00,2013-01-29 13:03:00,
2013-01-29 08:08:00,62.9,62.3,30.20,East,80,1.0,5.0,98,0.00,,---,0.00,VWS V14.00,2013-01-29 13:08:00,
2013-01-29 08:13:00,63.3,62.4,30.20,East,80,0.0,5.0,97,0.00,,---,0.00,VWS V14.00,2013-01-29 13:13:00,
2013-01-29 08:18:00,63.7,63.1,30.20,East,79,3.0,5.0,98,0.00,,---,0.00,VWS V14.00,2013-01-29 13:18:00,
2013-01-29 08:23:00,64.1,63.5,30.20,ENE,76,2.0,6.0,98,0.00,,---,0.00,VWS V14.00,2013-01-29 13:23:00,
2013-01-29 08:28:00,64.3,63.4,30.20,ENE,71,2.0,7.0,97,0.00,,---,0.00,VWS V14.00,2013-01-29 13:28:00,
2013-01-29 08:33:00,64.8,63.9,30.20,ENE,69,0.0,4.0,97,0.00,,---,0.00,VWS V14.00,2013-01-29 13:33:00,
2013-01-29 08:38:00,65.4,64.2,30.20,ENE,57,4.0,7.0,96,0.00,,---,0.00,VWS V14.00,2013-01-29 13:38:00,
2013-01-29 08:43:00,66.0,64.2,30.20,East,84,2.0,6.0,94,0.00,,---,0.00,VWS V14.00,2013-01-29 13:43:00,
2013-01-29 08:48:00,66.9,64.8,30.20,East,80,3.0,5.0,93,0.00,,---,0.00,VWS V14.00,2013-01-29 13:48:00,
2013-01-29 08:53:00,67.9,65.5,30.20,ESE,105,2.0,5.0,92,0.00,,---,0.00,VWS V14.00,2013-01-29 13:53:00,
2013-01-29 08:58:00,68.9,65.5,30.20,East,94,2.0,6.0,89,0.00,,---,0.00,VWS V14.00,2013-01-29 13:58:00,
2013-01-29 09:03:00,69.9,66.2,30.20,East,94,2.0,2.0,88,0.00,,---,0.00,VWS V14.00,2013-01-29 14:03:00,
2013-01-29 09:08:00,71.0,66.6,30.20,East,94,1.0,6.0,86,0.00,,---,0.00,VWS V14.00,2013-01-29 14:08:00,
2013-01-29 09:13:00,71.9,66.8,30.20,ESE,117,4.0,6.0,84,0.00,,---,0.00,VWS V14.00,2013-01-29 14:13:00,
2013-01-29 09:18:00,72.4,66.9,30.20,SE,128,7.0,7.0,83,0.00,,---,0.00,VWS V14.00,2013-01-29 14:18:00,
2013-01-29 09:23:00,72.9,67.4,30.20,ESE,109,4.0,6.0,83,0.00,,---,0.00,VWS V14.00,2013-01-29 14:23:00,
2013-01-29 09:28:00,73.7,67.5,30.20,ESE,111,4.0,6.0,81,0.00,,---,0.00,VWS V14.00,2013-01-29 14:28:00,
2013-01-29 09:33:00,74.6,68.0,30.20,ENE,76,5.0,6.0,80,0.00,,---,0.00,VWS V14.00,2013-01-29 14:33:00,
2013-01-29 09:38:00,75.4,67.7,30.20,East,98,5.0,13.0,77,0.00,,---,0.00,VWS V14.00,2013-01-29 14:38:00,
2013-01-29 09:43:00,75.6,68.3,30.20,ESE,105,3.0,11.0,78,0.00,,---,0.00,VWS V14.00,2013-01-29 14:43:00,
2013-01-29 09:48:00,76.4,68.3,30.20,ESE,118,8.0,9.0,76,0.00,,---,0.00,VWS V14.00,2013-01-29 14:48:00,
2013-01-29 09:53:00,76.7,68.2,30.20,SE,126,5.0,11.0,75,0.00,,---,0.00,VWS V14.00,2013-01-29 14:53:00,
2013-01-29 09:58:00,77.0,68.1,30.20,SE,127,0.0,10.0,74,0.00,,---,0.00,VWS V14.00,2013-01-29 14:58:00,
2013-01-29 10:03:00,77.7,68.4,30.20,SE,128,6.0,8.0,73,0.00,,---,0.00,VWS V14.00,2013-01-29 15:03:00,
2013-01-29 10:08:00,77.9,68.2,30.20,SE,130,2.0,10.0,72,0.00,,---,0.00,VWS V14.00,2013-01-29 15:08:00,
2013-01-29 10:13:00,78.2,68.0,30.20,ESE,103,7.0,12.0,71,0.00,,---,0.00,VWS V14.00,2013-01-29 15:13:00,
2013-01-29 10:18:00,78.6,68.0,30.20,East,96,11.0,11.0,70,0.00,,---,0.00,VWS V14.00,2013-01-29 15:18:00,
2013-01-29 10:23:00,78.8,68.2,30.20,ESE,112,5.0,11.0,70,0.00,,---,0.00,VWS V14.00,2013-01-29 15:23:00,
2013-01-29 10:28:00,78.9,67.9,30.20,East,96,4.0,10.0,69,0.00,,---,0.00,VWS V14.00,2013-01-29 15:28:00,
2013-01-29 10:33:00,79.3,68.3,30.20,SSE,165,7.0,12.0,69,0.00,,---,0.00,VWS V14.00,2013-01-29 15:33:00,
2013-01-29 10:38:00,79.9,68.4,30.20,SE,129,5.0,9.0,68,0.00,,---,0.00,VWS V14.00,2013-01-29 15:38:00,
2013-01-29 10:43:00,80.4,67.1,30.19,SE,132,9.0,15.0,64,0.00,,---,0.00,VWS V14.00,2013-01-29 15:43:00,
2013-01-29 10:48:00,80.1,67.3,30.19,SE,132,8.0,9.0,65,0.00,,---,0.00,VWS V14.00,2013-01-29 15:48:00,
2013-01-29 10:53:00,80.3,67.5,30.19,SE,132,4.0,11.0,65,0.00,,---,0.00,VWS V14.00,2013-01-29 15:53:00,
2013-01-29 10:58:00,80.9,67.1,30.19,SE,145,6.0,11.0,63,0.00,,---,0.00,VWS V14.00,2013-01-29 15:58:00,
2013-01-29 11:03:00,81.4,67.1,30.18,SE,142,5.0,8.0,62,0.00,,---,0.00,VWS V14.00,2013-01-29 16:03:00,
2013-01-29 11:08:00,81.9,67.1,30.19,SE,128,6.0,10.0,61,0.00,,---,0.00,VWS V14.00,2013-01-29 16:08:00,
2013-01-29 11:13:00,82.1,68.3,30.19,SE,129,8.0,8.0,63,0.00,,---,0.00,VWS V14.00,2013-01-29 16:13:00,
2013-01-29 11:18:00,82.6,68.3,30.18,SE,128,10.0,10.0,62,0.00,,---,0.00,VWS V14.00,2013-01-29 16:18:00,
2013-01-29 11:23:00,82.3,67.0,30.18,East,99,9.0,11.0,60,0.00,,---,0.00,VWS V14.00,2013-01-29 16:23:00,
2013-01-29 11:28:00,81.4,67.1,30.18,ESE,115,6.0,10.0,62,0.00,,---,0.00,VWS V14.00,2013-01-29 16:28:00,
2013-01-29 11:33:00,81.2,66.5,30.17,ESE,106,3.0,10.0,61,0.00,,---,0.00,VWS V14.00,2013-01-29 16:33:00,
2013-01-29 11:38:00,81.3,66.1,30.17,SE,130,6.0,11.0,60,0.00,,---,0.00,VWS V14.00,2013-01-29 16:38:00,
2013-01-29 11:43:00,80.9,66.2,30.17,East,95,6.0,10.0,61,0.00,,---,0.00,VWS V14.00,2013-01-29 16:43:00,
2013-01-29 11:49:00,80.5,66.3,30.17,ESE,106,5.0,10.0,62,0.00,,---,0.00,VWS V14.00,2013-01-29 16:49:00,
2013-01-29 11:54:00,80.5,66.8,30.16,ESE,117,6.0,10.0,63,0.00,,---,0.00,VWS V14.00,2013-01-29 16:54:00,
2013-01-29 11:59:00,81.7,66.5,30.16,SSE,148,2.0,12.0,60,0.00,,---,0.00,VWS V14.00,2013-01-29 16:59:00,
2013-01-29 12:04:00,82.5,66.7,30.15,ESE,117,5.0,12.0,59,0.00,,---,0.00,VWS V14.00,2013-01-29 17:04:00,
2013-01-29 12:09:00,82.8,66.5,30.15,ESE,108,9.0,11.0,58,0.00,,---,0.00,VWS V14.00,2013-01-29 17:09:00,
2013-01-29 12:14:00,82.1,65.4,30.15,ENE,57,7.0,10.0,57,0.00,,---,0.00,VWS V14.00,2013-01-29 17:14:00,
2013-01-29 12:19:00,82.0,66.3,30.15,East,82,7.0,9.0,59,0.00,,---,0.00,VWS V14.00,2013-01-29 17:19:00,
2013-01-29 12:24:00,82.0,66.3,30.15,East,98,2.0,14.0,59,0.00,,---,0.00,VWS V14.00,2013-01-29 17:24:00,
2013-01-29 12:29:00,82.2,67.4,30.14,SSE,155,5.0,6.0,61,0.00,,---,0.00,VWS V14.00,2013-01-29 17:29:00,
2013-01-29 12:34:00,82.9,66.6,30.13,SE,130,7.0,9.0,58,0.00,,---,0.00,VWS V14.00,2013-01-29 17:34:00,
2013-01-29 12:39:00,82.6,66.3,30.13,East,100,10.0,12.0,58,0.00,,---,0.00,VWS V14.00,2013-01-29 17:39:00,
2013-01-29 12:44:00,82.1,65.9,30.13,SE,125,2.0,12.0,58,0.00,,---,0.00,VWS V14.00,2013-01-29 17:44:00,
2013-01-29 12:49:00,81.8,66.1,30.12,SE,130,6.0,9.0,59,0.00,,---,0.00,VWS V14.00,2013-01-29 17:49:00,
2013-01-29 12:54:00,82.0,65.8,30.12,SE,127,2.0,12.0,58,0.00,,---,0.00,VWS V14.00,2013-01-29 17:54:00,
2013-01-29 12:58:00,82.1,65.4,30.11,SE,125,4.0,11.0,57,0.00,,---,0.00,VWS V14.00,2013-01-29 17:58:00,
2013-01-29 13:04:00,83.0,66.2,30.11,East,84,7.0,14.0,57,0.00,,---,0.00,VWS V14.00,2013-01-29 18:04:00,
2013-01-29 13:09:00,84.1,66.2,30.10,SE,130,7.0,11.0,55,0.00,,---,0.00,VWS V14.00,2013-01-29 18:09:00,
2013-01-29 13:14:00,85.0,66.5,30.10,SE,134,6.0,8.0,54,0.00,,---,0.00,VWS V14.00,2013-01-29 18:14:00,
2013-01-29 13:19:00,85.9,64.0,30.10,ESE,104,5.0,16.0,48,0.00,,---,0.00,VWS V14.00,2013-01-29 18:19:00,
2013-01-29 13:24:00,85.5,64.8,30.10,ESE,123,11.0,11.0,50,0.00,,---,0.00,VWS V14.00,2013-01-29 18:24:00,
2013-01-29 13:29:00,85.0,65.4,30.09,SE,130,9.0,14.0,52,0.00,,---,0.00,VWS V14.00,2013-01-29 18:29:00,
2013-01-29 13:34:00,84.6,65.1,30.09,ESE,117,7.0,16.0,52,0.00,,---,0.00,VWS V14.00,2013-01-29 18:34:00,
2013-01-29 13:39:00,84.8,64.1,30.09,ESE,115,5.0,14.0,50,0.00,,---,0.00,VWS V14.00,2013-01-29 18:39:00,
2013-01-29 13:44:00,85.1,64.4,30.08,ESE,123,6.0,13.0,50,0.00,,---,0.00,VWS V14.00,2013-01-29 18:44:00,
2013-01-29 13:49:00,84.3,63.7,30.08,SE,146,4.0,15.0,50,0.00,,---,0.00,VWS V14.00,2013-01-29 18:49:00,
2013-01-29 13:53:00,83.5,63.5,30.08,East,101,2.0,9.0,51,0.00,,---,0.00,VWS V14.00,2013-01-29 18:53:00,
2013-01-29 13:58:00,83.6,64.1,30.08,SE,146,8.0,9.0,52,0.00,,---,0.00,VWS V14.00,2013-01-29 18:58:00,
2013-01-29 14:03:00,83.1,63.7,30.08,SE,132,1.0,7.0,52,0.00,,---,0.00,VWS V14.00,2013-01-29 19:03:00,
2013-01-29 14:08:00,82.7,63.8,30.08,SE,134,5.0,8.0,53,0.00,,---,0.00,VWS V14.00,2013-01-29 19:08:00,
2013-01-29 14:13:00,82.6,63.2,30.08,SSE,157,10.0,10.0,52,0.00,,---,0.00,VWS V14.00,2013-01-29 19:13:00,
2013-01-29 14:19:00,82.6,63.2,30.08,ESE,123,6.0,8.0,52,0.00,,---,0.00,VWS V14.00,2013-01-29 19:19:00,
2013-01-29 14:24:00,83.4,64.0,30.08,SSE,154,4.0,8.0,52,0.00,,---,0.00,VWS V14.00,2013-01-29 19:24:00,
2013-01-29 14:29:00,84.1,64.0,30.08,East,97,5.0,9.0,51,0.00,,---,0.00,VWS V14.00,2013-01-29 19:29:00,
2013-01-29 14:34:00,85.4,64.1,30.08,SE,146,7.0,12.0,49,0.00,,---,0.00,VWS V14.00,2013-01-29 19:34:00,
2013-01-29 14:39:00,86.3,64.3,30.08,SE,124,7.0,10.0,48,0.00,,---,0.00,VWS V14.00,2013-01-29 19:39:00,
2013-01-29 14:44:00,86.9,64.3,30.08,ESE,107,2.0,10.0,47,0.00,,---,0.00,VWS V14.00,2013-01-29 19:44:00,
2013-01-29 14:49:00,87.7,64.4,30.07,SE,144,8.0,9.0,46,0.00,,---,0.00,VWS V14.00,2013-01-29 19:49:00,
2013-01-29 14:53:00,86.9,63.7,30.07,ESE,120,5.0,8.0,46,0.00,,---,0.00,VWS V14.00,2013-01-29 19:53:00,
2013-01-29 14:58:00,85.4,62.3,30.07,SSE,149,8.0,9.0,46,0.00,,---,0.00,VWS V14.00,2013-01-29 19:58:00,
2013-01-29 15:03:00,84.3,62.5,30.07,SE,142,2.0,7.0,48,0.00,,---,0.00,VWS V14.00,2013-01-29 20:03:00,
2013-01-29 15:08:00,84.1,62.9,30.07,SE,129,1.0,6.0,49,0.00,,---,0.00,VWS V14.00,2013-01-29 20:08:00,
2013-01-29 15:13:00,84.9,63.0,30.07,ESE,105,4.0,6.0,48,0.00,,---,0.00,VWS V14.00,2013-01-29 20:13:00,
2013-01-29 15:18:00,84.6,62.2,30.07,SE,131,3.0,7.0,47,0.00,,---,0.00,VWS V14.00,2013-01-29 20:18:00,
2013-01-29 15:23:00,84.1,62.3,30.07,SE,144,4.0,10.0,48,0.00,,---,0.00,VWS V14.00,2013-01-29 20:23:00,
2013-01-29 15:28:00,84.3,63.1,30.07,SSE,147,2.0,8.0,49,0.00,,---,0.00,VWS V14.00,2013-01-29 20:28:00,
2013-01-29 15:33:00,84.0,62.2,30.07,SE,137,10.0,10.0,48,0.00,,---,0.00,VWS V14.00,2013-01-29 20:33:00,
2013-01-29 15:38:00,83.5,62.9,30.07,SE,124,2.0,6.0,50,0.00,,---,0.00,VWS V14.00,2013-01-29 20:38:00,
2013-01-29 15:43:00,83.2,63.2,30.07,ESE,122,2.0,4.0,51,0.00,,---,0.00,VWS V14.00,2013-01-29 20:43:00,
2013-01-29 15:48:00,82.8,63.4,30.07,SE,131,6.0,8.0,52,0.00,,---,0.00,VWS V14.00,2013-01-29 20:48:00,
2013-01-29 15:53:00,82.4,63.6,30.07,SE,127,1.0,6.0,53,0.00,,---,0.00,VWS V14.00,2013-01-29 20:53:00,
2013-01-29 15:58:00,82.1,63.8,30.08,ESE,116,4.0,6.0,54,0.00,,---,0.00,VWS V14.00,2013-01-29 20:58:00,
2013-01-29 16:03:00,81.8,64.1,30.07,SE,131,1.0,5.0,55,0.00,,---,0.00,VWS V14.00,2013-01-29 21:03:00,
2013-01-29 16:08:00,81.6,63.4,30.07,SSE,150,6.0,8.0,54,0.00,,---,0.00,VWS V14.00,2013-01-29 21:08:00,
2013-01-29 16:13:00,81.4,63.7,30.08,ESE,111,1.0,5.0,55,0.00,,---,0.00,VWS V14.00,2013-01-29 21:13:00,
2013-01-29 16:18:00,81.3,64.1,30.08,ESE,113,0.0,5.0,56,0.00,,---,0.00,VWS V14.00,2013-01-29 21:18:00,
2013-01-29 16:23:00,81.2,64.0,30.08,ESE,109,0.0,5.0,56,0.00,,---,0.00,VWS V14.00,2013-01-29 21:23:00,
2013-01-29 16:28:00,81.1,64.4,30.08,ESE,111,1.0,4.0,57,0.00,,---,0.00,VWS V14.00,2013-01-29 21:28:00,
2013-01-29 16:33:00,80.9,64.2,30.08,ESE,120,0.0,6.0,57,0.00,,---,0.00,VWS V14.00,2013-01-29 21:33:00,
2013-01-29 16:38:00,80.8,64.2,30.08,ESE,121,0.0,2.0,57,0.00,,---,0.00,VWS V14.00,2013-01-29 21:38:00,
2013-01-29 16:43:00,80.8,64.2,30.08,ESE,121,2.0,6.0,57,0.00,,---,0.00,VWS V14.00,2013-01-29 21:43:00,
2013-01-29 16:48:00,80.8,64.2,30.08,ESE,121,0.0,1.0,57,0.00,,---,0.00,VWS V14.00,2013-01-29 21:48:00,
2013-01-29 16:53:00,80.7,63.6,30.08,ESE,121,0.0,4.0,56,0.00,,---,0.00,VWS V14.00,2013-01-29 21:53:00,
2013-01-29 16:58:00,80.7,63.6,30.08,ESE,121,0.0,2.0,56,0.00,,---,0.00,VWS V14.00,2013-01-29 21:58:00,
2013-01-29 17:03:00,80.7,64.1,30.08,ESE,121,0.0,0.0,57,0.00,,---,0.00,VWS V14.00,2013-01-29 22:03:00,
2013-01-29 17:08:00,80.7,64.1,30.08,ESE,123,2.0,5.0,57,0.00,,---,0.00,VWS V14.00,2013-01-29 22:08:00,
2013-01-29 17:13:00,80.7,63.6,30.08,SE,128,2.0,6.0,56,0.00,,---,0.00,VWS V14.00,2013-01-29 22:13:00,
2013-01-29 17:18:00,80.5,63.4,30.08,SE,129,4.0,7.0,56,0.00,,---,0.00,VWS V14.00,2013-01-29 22:18:00,
2013-01-29 17:23:00,80.4,63.3,30.08,SSE,150,6.0,8.0,56,0.00,,---,0.00,VWS V14.00,2013-01-29 22:23:00,
2013-01-29 17:28:00,80.3,63.7,30.08,East,101,7.0,10.0,57,0.00,,---,0.00,VWS V14.00,2013-01-29 22:28:00,
2013-01-29 17:33:00,80.2,63.6,30.08,SE,135,3.0,11.0,57,0.00,,---,0.00,VWS V14.00,2013-01-29 22:33:00,
2013-01-29 17:38:00,79.9,63.8,30.08,SE,132,4.0,9.0,58,0.00,,---,0.00,VWS V14.00,2013-01-29 22:38:00,
2013-01-29 17:43:00,79.7,64.1,30.08,SE,142,4.0,5.0,59,0.00,,---,0.00,VWS V14.00,2013-01-29 22:43:00,
2013-01-29 17:48:00,79.5,64.4,30.08,SE,139,6.0,6.0,60,0.00,,---,0.00,VWS V14.00,2013-01-29 22:48:00,
2013-01-29 17:53:00,79.4,64.8,30.09,ESE,123,0.0,7.0,61,0.00,,---,0.00,VWS V14.00,2013-01-29 22:53:00,
2013-01-29 17:58:00,79.3,64.7,30.08,SE,139,0.0,6.0,61,0.00,,---,0.00,VWS V14.00,2013-01-29 22:58:00,
2013-01-29 18:03:00,79.1,65.0,30.08,SE,132,5.0,10.0,62,0.00,,---,0.00,VWS V14.00,2013-01-29 23:03:00,
2013-01-29 18:08:00,78.8,65.2,30.08,SE,136,2.0,6.0,63,0.00,,---,0.00,VWS V14.00,2013-01-29 23:08:00,
2013-01-29 18:13:00,78.6,65.0,30.08,SE,124,1.0,8.0,63,0.00,,---,0.00,VWS V14.00,2013-01-29 23:13:00,
2013-01-29 18:18:00,78.4,65.2,30.08,ESE,123,4.0,7.0,64,0.00,,---,0.00,VWS V14.00,2013-01-29 23:18:00,
2013-01-29 18:23:00,78.3,65.1,30.08,SE,129,0.0,7.0,64,0.00,,---,0.00,VWS V14.00,2013-01-29 23:23:00,
2013-01-29 18:28:00,78.0,65.3,30.08,SE,128,2.0,5.0,65,0.00,,---,0.00,VWS V14.00,2013-01-29 23:28:00,
2013-01-29 18:33:00,77.9,65.2,30.08,ESE,120,0.0,3.0,65,0.00,,---,0.00,VWS V14.00,2013-01-29 23:33:00,
2013-01-29 18:38:00,77.7,65.4,30.08,ESE,120,0.0,0.0,66,0.00,,---,0.00,VWS V14.00,2013-01-29 23:38:00,
2013-01-29 18:43:00,77.5,65.3,30.08,ESE,121,0.0,2.0,66,0.00,,---,0.00,VWS V14.00,2013-01-29 23:43:00,
2013-01-29 18:48:00,77.2,65.4,30.08,ESE,123,0.0,1.0,67,0.00,,---,0.00,VWS V14.00,2013-01-29 23:48:00,
2013-01-29 18:53:00,77.0,65.6,30.08,ESE,122,0.0,0.0,68,0.00,,---,0.00,VWS V14.00,2013-01-29 23:53:00,
2013-01-29 18:58:00,76.7,65.3,30.08,ESE,122,0.0,3.0,68,0.00,,---,0.00,VWS V14.00,2013-01-29 23:58:00,
2013-01-29 19:03:00,76.4,65.5,30.08,ESE,104,0.0,1.0,69,0.00,,---,0.00,VWS V14.00,2013-01-30 00:03:00,
2013-01-29 19:08:00,76.1,65.6,30.09,ESE,108,0.0,0.0,70,0.00,,---,0.00,VWS V14.00,2013-01-30 00:08:00,
2013-01-29 19:13:00,75.8,65.3,30.09,ESE,109,0.0,1.0,70,0.00,,---,0.00,VWS V14.00,2013-01-30 00:13:00,
2013-01-29 19:18:00,75.5,65.4,30.09,ESE,110,0.0,0.0,71,0.00,,---,0.00,VWS V14.00,2013-01-30 00:18:00,
2013-01-29 19:23:00,75.4,65.8,30.09,ESE,109,0.0,0.0,72,0.00,,---,0.00,VWS V14.00,2013-01-30 00:23:00,
2013-01-29 19:28:00,75.1,65.5,30.09,ESE,110,0.0,0.0,72,0.00,,---,0.00,VWS V14.00,2013-01-30 00:28:00,
2013-01-29 19:33:00,74.9,65.7,30.09,ESE,110,0.0,0.0,73,0.00,,---,0.00,VWS V14.00,2013-01-30 00:33:00,
2013-01-29 19:38:00,74.7,65.5,30.10,ESE,110,0.0,0.0,73,0.00,,---,0.00,VWS V14.00,2013-01-30 00:38:00,
2013-01-29 19:43:00,74.6,65.8,30.10,ESE,114,0.0,5.0,74,0.00,,---,0.00,VWS V14.00,2013-01-30 00:43:00,
2013-01-29 19:48:00,74.6,65.8,30.10,ESE,117,2.0,6.0,74,0.00,,---,0.00,VWS V14.00,2013-01-30 00:48:00,
2013-01-29 19:53:00,74.5,65.7,30.10,ESE,117,0.0,0.0,74,0.00,,---,0.00,VWS V14.00,2013-01-30 00:53:00,
2013-01-29 19:58:00,74.4,65.6,30.10,ESE,117,0.0,5.0,74,0.00,,---,0.00,VWS V14.00,2013-01-30 00:58:00,
2013-01-29 20:03:00,74.3,65.5,30.10,ESE,121,4.0,4.0,74,0.00,,---,0.00,VWS V14.00,2013-01-30 01:03:00,
2013-01-29 20:08:00,74.2,65.4,30.11,ESE,123,2.0,5.0,74,0.00,,---,0.00,VWS V14.00,2013-01-30 01:08:00,
2013-01-29 20:13:00,74.0,65.6,30.11,SE,128,1.0,7.0,75,0.00,,---,0.00,VWS V14.00,2013-01-30 01:13:00,
2013-01-29 20:18:00,73.7,65.3,30.11,SE,126,0.0,4.0,75,0.00,,---,0.00,VWS V14.00,2013-01-30 01:18:00,
2013-01-29 20:23:00,73.5,65.5,30.11,SE,128,2.0,7.0,76,0.00,,---,0.00,VWS V14.00,2013-01-30 01:23:00,
2013-01-29 20:28:00,73.4,65.4,30.11,SE,128,2.0,4.0,76,0.00,,---,0.00,VWS V14.00,2013-01-30 01:28:00,
2013-01-29 20:33:00,73.3,65.7,30.11,SE,127,0.0,3.0,77,0.00,,---,0.00,VWS V14.00,2013-01-30 01:33:00,
2013-01-29 20:38:00,73.1,65.5,30.11,SE,129,0.0,0.0,77,0.00,,---,0.00,VWS V14.00,2013-01-30 01:38:00,
2013-01-29 20:43:00,72.8,65.6,30.11,SE,128,0.0,3.0,78,0.00,,---,0.00,VWS V14.00,2013-01-30 01:43:00,
2013-01-29 20:48:00,72.6,65.3,30.11,SE,128,2.0,2.0,78,0.00,,---,0.00,VWS V14.00,2013-01-30 01:48:00,
2013-01-29 20:53:00,72.5,65.6,30.11,SE,128,0.0,7.0,79,0.00,,---,0.00,VWS V14.00,2013-01-30 01:53:00,
2013-01-29 20:58:00,72.4,65.5,30.11,SE,125,2.0,6.0,79,0.00,,---,0.00,VWS V14.00,2013-01-30 01:58:00,
2013-01-29 21:03:00,72.2,65.3,30.11,SE,138,1.0,7.0,79,0.00,,---,0.00,VWS V14.00,2013-01-30 02:03:00,
2013-01-29 21:08:00,72.1,65.2,30.10,ESE,121,0.0,8.0,79,0.00,,---,0.00,VWS V14.00,2013-01-30 02:08:00,
2013-01-29 21:13:00,72.0,65.1,30.10,ESE,122,0.0,4.0,79,0.00,,---,0.00,VWS V14.00,2013-01-30 02:13:00,
2013-01-29 21:18:00,71.9,65.4,30.10,ESE,123,0.0,0.0,80,0.00,,---,0.00,VWS V14.00,2013-01-30 02:18:00,
2013-01-29 21:23:00,71.7,65.2,30.10,ESE,122,0.0,0.0,80,0.00,,---,0.00,VWS V14.00,2013-01-30 02:23:00,
2013-01-29 21:28:00,71.5,65.0,30.10,ESE,122,0.0,5.0,80,0.00,,---,0.00,VWS V14.00,2013-01-30 02:28:00,
2013-01-29 21:33:00,71.3,64.8,30.10,ESE,121,1.0,3.0,80,0.00,,---,0.00,VWS V14.00,2013-01-30 02:33:00,
2013-01-29 21:38:00,71.1,65.0,30.10,ESE,121,0.0,6.0,81,0.00,,---,0.00,VWS V14.00,2013-01-30 02:38:00,
2013-01-29 21:43:00,71.0,64.9,30.10,ESE,118,3.0,5.0,81,0.00,,---,0.00,VWS V14.00,2013-01-30 02:43:00,
2013-01-29 21:48:00,70.9,64.8,30.11,ESE,108,0.0,3.0,81,0.00,,---,0.00,VWS V14.00,2013-01-30 02:48:00,
2013-01-29 21:53:00,71.0,64.9,30.10,SE,128,2.0,7.0,81,0.00,,---,0.00,VWS V14.00,2013-01-30 02:53:00,
2013-01-29 21:58:00,70.9,64.8,30.10,SE,128,0.0,6.0,81,0.00,,---,0.00,VWS V14.00,2013-01-30 02:58:00,
2013-01-29 22:03:00,70.7,64.9,30.10,SE,126,1.0,6.0,82,0.00,,---,0.00,VWS V14.00,2013-01-30 03:03:00,
2013-01-29 22:08:00,70.5,64.8,30.10,ESE,123,0.0,2.0,82,0.00,,---,0.00,VWS V14.00,2013-01-30 03:08:00,
2013-01-29 22:13:00,70.3,64.6,30.10,ESE,123,0.0,0.0,82,0.00,,---,0.00,VWS V14.00,2013-01-30 03:13:00,
2013-01-29 22:18:00,70.1,64.7,30.10,ESE,118,0.0,5.0,83,0.00,,---,0.00,VWS V14.00,2013-01-30 03:18:00,
2013-01-29 22:23:00,69.9,64.5,30.10,ESE,117,0.0,1.0,83,0.00,,---,0.00,VWS V14.00,2013-01-30 03:23:00,
2013-01-29 22:28:00,69.7,64.3,30.10,ESE,117,0.0,0.0,83,0.00,,---,0.00,VWS V14.00,2013-01-30 03:28:00,
2013-01-29 22:33:00,69.5,64.5,30.11,ESE,117,3.0,4.0,84,0.00,,---,0.00,VWS V14.00,2013-01-30 03:33:00,
2013-01-29 22:38:00,69.2,64.5,30.11,ESE,117,2.0,5.0,85,0.00,,---,0.00,VWS V14.00,2013-01-30 03:38:00,
2013-01-29 22:43:00,69.0,64.3,30.11,ESE,103,2.0,6.0,85,0.00,,---,0.00,VWS V14.00,2013-01-30 03:43:00,
2013-01-29 22:48:00,68.8,64.4,30.10,ESE,103,0.0,0.0,86,0.00,,---,0.00,VWS V14.00,2013-01-30 03:48:00,
2013-01-29 22:53:00,68.6,64.2,30.11,ESE,106,0.0,5.0,86,0.00,,---,0.00,VWS V14.00,2013-01-30 03:53:00,
2013-01-29 22:58:00,68.5,64.2,30.10,ESE,110,0.0,7.0,86,0.00,,---,0.00,VWS V14.00,2013-01-30 03:58:00,
2013-01-29 23:03:00,68.4,64.1,30.10,ESE,113,1.0,6.0,86,0.00,,---,0.00,VWS V14.00,2013-01-30 04:03:00,
2013-01-29 23:08:00,68.3,64.3,30.10,ESE,107,0.0,4.0,87,0.00,,---,0.00,VWS V14.00,2013-01-30 04:08:00,
2013-01-29 23:13:00,68.1,64.1,30.10,ESE,117,1.0,4.0,87,0.00,,---,0.00,VWS V14.00,2013-01-30 04:13:00,
2013-01-29 23:18:00,68.0,64.3,30.09,ESE,110,0.0,7.0,88,0.00,,---,0.00,VWS V14.00,2013-01-30 04:18:00,
2013-01-29 23:23:00,67.9,64.2,30.09,ESE,113,0.0,6.0,88,0.00,,---,0.00,VWS V14.00,2013-01-30 04:23:00,
2013-01-29 23:28:00,67.8,64.1,30.09,ESE,112,0.0,0.0,88,0.00,,---,0.00,VWS V14.00,2013-01-30 04:28:00,
2013-01-29 23:33:00,67.7,64.3,30.09,ESE,115,2.0,6.0,89,0.00,,---,0.00,VWS V14.00,2013-01-30 04:33:00,
2013-01-29 23:38:00,67.7,64.3,30.09,ESE,111,0.0,7.0,89,0.00,,---,0.00,VWS V14.00,2013-01-30 04:38:00,
2013-01-29 23:43:00,67.6,64.2,30.09,ESE,110,0.0,6.0,89,0.00,,---,0.00,VWS V14.00,2013-01-30 04:43:00,
2013-01-29 23:48:00,67.6,64.2,30.09,ESE,116,0.0,4.0,89,0.00,,---,0.00,VWS V14.00,2013-01-30 04:48:00,
2013-01-29 23:53:00,67.5,64.5,30.08,ESE,112,4.0,7.0,90,0.00,,---,0.00,VWS V14.00,2013-01-30 04:53:00,
2013-01-29 23:58:00,67.5,64.5,30.08,ESE,114,0.0,5.0,90,0.00,,---,0.00,VWS V14.00,2013-01-30 04:58:00,